Flag for Japan Weather past 2 weeks in Okayama, Japan

Now
88 °F

Partly sunny.


Feels Like: 96 °F
Forecast: 76 / 85 °F
Wind: 9 mph from Southeast

Location: Okayama Airport

Current Time: Jul 31, 2014 at 2:23:12 PM

Latest Report: Jul 31, 2014 at 2:00 PM


Visibility: N/A

Pressure: 29.92 "Hg

Humidity: 62%

Dew point: 73 °F

Location of OkayamaLocation

Historic Weather in Okayama — Graph

°F

Okayama temperature yesterday

Maximum temperature yesterday: 93 °F (at 1:46 PM)
Minimum temperature yesterday: 77 °F (at 9:00 PM)
Average temperature yesterday: 85 °F

Past Weeks' High & Low Weather Summary

 TemperatureHumidityPressure
High93 °F (Jul 25, 3:00 PM)94% (Jul 17, 7:00 AM)29.98 "Hg (Jul 17, 7:00 AM)
Low72 °F (Jul 19, 8:00 PM)46% (Jul 27, 4:00 PM)29.71 "Hg (Jul 23, 6:00 PM)
Average83 °F69%29.87 "Hg
* Reported Jul 16 1:00 PM — Jul 31 1:00 PM, Okayama, Weather by CustomWeather, © 2014

Note: Actual official high and low records may vary slightly from our data, if they occured in-between our weather recording intervals... More about our weather records

Advertising

Okayama weather history for previous 24 hours

 ConditionsComfort  
Time TempWeatherWind HumidityBarometerVisibility
1:00 PM
Jul 31
91 °FScattered clouds.8 mph56%29.92 "HgN/A
12:00 PM90 °FPassing clouds.7 mph59%29.92 "HgN/A
11:00 AM88 °FPassing clouds.5 mph62%29.95 "HgN/A
10:47 AM90 °FPassing clouds.3 mph63%29.95 "HgN/A
10:00 AM86 °FPassing clouds.5 mph66%29.98 "HgN/A
9:00 AM82 °FPassing clouds.7 mph74%29.98 "HgN/A
8:00 AM81 °FPassing clouds.6 mph79%29.98 "HgN/A
7:00 AM77 °FScattered clouds.7 mph83%29.98 "HgN/A
9:00 PM
Jul 30
77 °FPartly cloudy.7 mph89%29.98 "HgN/A
8:00 PM79 °FPassing clouds.6 mph84%29.95 "HgN/A
7:00 PM81 °FPartly sunny.6 mph79%29.95 "HgN/A
6:00 PM84 °FPartly sunny.8 mph70%29.92 "HgN/A
5:00 PM88 °FPartly sunny.10 mph66%29.92 "HgN/A
4:00 PM88 °FPartly sunny.9 mph62%29.95 "HgN/A
3:00 PM91 °FScattered clouds.10 mph59%29.92 "HgN/A
2:00 PM91 °FScattered clouds.7 mph56%29.95 "HgN/A
Weather by CustomWeather, © 2014

See weather overviewHow to use our weather pages